Time,TemperatureF,DewpointF,PressureIn,WindDirection,WindDirectionDegrees,WindSpeedMPH,WindSpeedGustMPH,Humidity,HourlyPrecipIn,Conditions,Clouds,dailyrainin,SolarRadiationWatts/m^2,SoftwareType,DateUTC
2013-08-12 00:12:00,57.0,34.0,-100.00,ESE,119,2.0,7.0,41,0.00,,,0.00,0.000000,,2013-08-12 07:12:00,
2013-08-12 00:22:00,57.0,34.0,-100.00,ESE,119,2.0,7.0,41,0.00,,,0.00,0.000000,,2013-08-12 07:22:00,
2013-08-12 00:33:00,57.0,34.0,-100.00,ESE,119,2.0,7.0,41,0.00,,,0.00,0.000000,,2013-08-12 07:33:00,
2013-08-12 00:43:00,57.0,34.0,-100.00,ESE,119,2.0,7.0,41,0.00,,,0.00,0.000000,,2013-08-12 07:43:00,
2013-08-12 01:22:00,53.0,32.0,-100.00,SE,138,4.0,6.0,45,0.00,,,0.00,0.000000,,2013-08-12 08:22:00,
2013-08-12 01:33:00,53.0,32.0,-100.00,SE,138,4.0,6.0,45,0.00,,,0.00,0.000000,,2013-08-12 08:33:00,
2013-08-12 01:43:00,53.0,32.0,-100.00,SE,138,4.0,6.0,45,0.00,,,0.00,0.000000,,2013-08-12 08:43:00,
2013-08-12 02:43:00,51.0,30.0,-100.00,ESE,122,2.0,7.0,45,0.00,,,0.00,0.000000,,2013-08-12 09:43:00,
2013-08-12 04:12:00,48.0,29.0,-100.00,South,182,0.0,7.0,48,0.00,,,0.00,0.000000,,2013-08-12 11:12:00,
2013-08-12 04:22:00,48.0,29.0,-100.00,South,182,0.0,7.0,48,0.00,,,0.00,0.000000,,2013-08-12 11:22:00,
2013-08-12 05:11:00,46.0,29.0,-100.00,SE,125,0.0,0.0,51,0.00,,,0.00,0.000000,,2013-08-12 12:11:00,
2013-08-12 05:43:00,46.0,29.0,-100.00,SE,125,0.0,0.0,51,0.00,,,0.00,0.000000,,2013-08-12 12:43:00,
2013-08-12 06:11:00,44.0,28.0,-100.00,SW,227,0.0,0.0,54,0.00,,,0.00,0.000000,,2013-08-12 13:11:00,
2013-08-12 06:22:00,44.0,28.0,-100.00,SW,227,0.0,0.0,54,0.00,,,0.00,0.000000,,2013-08-12 13:22:00,
2013-08-12 06:32:00,44.0,28.0,-100.00,SW,227,0.0,0.0,54,0.00,,,0.00,0.000000,,2013-08-12 13:32:00,
2013-08-12 07:11:00,45.0,28.0,-100.00,ESE,118,0.0,0.0,51,0.00,,,0.00,6.000000,,2013-08-12 14:11:00,
2013-08-12 07:22:00,45.0,28.0,-100.00,ESE,118,0.0,0.0,51,0.00,,,0.00,6.000000,,2013-08-12 14:22:00,
2013-08-12 07:42:00,45.0,28.0,-100.00,ESE,118,0.0,0.0,51,0.00,,,0.00,6.000000,,2013-08-12 14:42:00,
2013-08-12 08:11:00,48.0,29.0,-100.00,WSW,253,0.0,4.0,47,0.00,,,0.00,32.000000,,2013-08-12 15:11:00,
2013-08-12 09:11:00,63.0,29.0,-100.00,West,275,0.0,0.0,28,-99.99,,,0.00,363.000000,,2013-08-12 16:11:00,
2013-08-12 09:22:00,63.0,29.0,-100.00,West,275,0.0,0.0,28,-99.99,,,0.00,363.000000,,2013-08-12 16:22:00,
2013-08-12 09:32:00,63.0,29.0,-100.00,West,275,0.0,0.0,28,-99.99,,,0.00,363.000000,,2013-08-12 16:32:00,
2013-08-12 09:42:00,63.0,29.0,-100.00,West,275,0.0,0.0,28,-99.99,,,0.00,363.000000,,2013-08-12 16:42:00,
2013-08-12 10:11:00,72.0,26.0,-100.00,NNE,12,1.0,5.0,18,0.00,,,0.00,689.000000,,2013-08-12 17:11:00,
2013-08-12 10:22:00,72.0,26.0,-100.00,NNE,12,1.0,5.0,18,0.00,,,0.00,689.000000,,2013-08-12 17:22:00,
2013-08-12 10:32:00,72.0,26.0,-100.00,NNE,12,1.0,5.0,18,0.00,,,0.00,689.000000,,2013-08-12 17:32:00,
2013-08-12 10:43:00,72.0,26.0,-100.00,NNE,12,1.0,5.0,18,0.00,,,0.00,689.000000,,2013-08-12 17:43:00,
2013-08-12 11:11:00,79.0,29.0,-100.00,NNW,335,4.0,9.0,16,0.00,,,0.00,894.000000,,2013-08-12 18:11:00,
2013-08-12 11:23:00,79.0,29.0,-100.00,NNW,335,4.0,9.0,16,0.00,,,0.00,894.000000,,2013-08-12 18:23:00,
2013-08-12 11:32:00,79.0,29.0,-100.00,NNW,335,4.0,9.0,16,0.00,,,0.00,894.000000,,2013-08-12 18:32:00,
2013-08-12 11:43:00,79.0,29.0,-100.00,NNW,335,4.0,9.0,16,0.00,,,0.00,894.000000,,2013-08-12 18:43:00,
2013-08-12 13:42:00,80.0,23.0,-100.00,WSW,244,10.0,19.0,12,0.00,,,0.00,1136.000000,,2013-08-12 20:42:00,
2013-08-12 14:12:00,80.0,23.0,-100.00,WSW,242,11.0,23.0,12,0.00,,,0.00,1150.000000,,2013-08-12 21:12:00,
2013-08-12 14:22:00,80.0,23.0,-100.00,WSW,242,11.0,23.0,12,0.00,,,0.00,1150.000000,,2013-08-12 21:22:00,
2013-08-12 14:32:00,80.0,23.0,-100.00,WSW,242,11.0,23.0,12,0.00,,,0.00,1150.000000,,2013-08-12 21:32:00,
2013-08-12 14:43:00,80.0,23.0,-100.00,WSW,242,11.0,23.0,12,0.00,,,0.00,1150.000000,,2013-08-12 21:43:00,
2013-08-12 15:11:00,81.0,26.0,-100.00,WSW,240,11.0,27.0,13,0.00,,,0.00,1098.000000,,2013-08-12 22:11:00,
2013-08-12 15:21:00,81.0,26.0,-100.00,WSW,240,11.0,27.0,13,0.00,,,0.00,1098.000000,,2013-08-12 22:21:00,
2013-08-12 15:32:00,81.0,26.0,-100.00,WSW,240,11.0,27.0,13,0.00,,,0.00,1098.000000,,2013-08-12 22:32:00,
2013-08-12 15:43:00,81.0,26.0,-100.00,WSW,240,11.0,27.0,13,0.00,,,0.00,1098.000000,,2013-08-12 22:43:00,
2013-08-12 16:11:00,82.0,28.0,-100.00,WSW,242,10.0,26.0,14,0.00,,,0.00,973.000000,,2013-08-12 23:11:00,
2013-08-12 16:21:00,82.0,28.0,-100.00,WSW,242,10.0,26.0,14,0.00,,,0.00,973.000000,,2013-08-12 23:21:00,
2013-08-12 16:34:00,82.0,28.0,-100.00,WSW,242,10.0,26.0,14,0.00,,,0.00,973.000000,,2013-08-12 23:34:00,
2013-08-12 16:43:00,82.0,28.0,-100.00,WSW,242,10.0,26.0,14,0.00,,,0.00,973.000000,,2013-08-12 23:43:00,
2013-08-12 17:12:00,81.0,29.0,-100.00,East,99,11.0,24.0,15,0.00,,,0.00,798.000000,,2013-08-13 00:12:00,
2013-08-12 17:24:00,81.0,29.0,-100.00,East,99,11.0,24.0,15,0.00,,,0.00,798.000000,,2013-08-13 00:24:00,
2013-08-12 17:34:00,81.0,29.0,-100.00,East,99,11.0,24.0,15,0.00,,,0.00,798.000000,,2013-08-13 00:34:00,
2013-08-12 17:45:00,81.0,29.0,-100.00,East,99,11.0,24.0,15,0.00,,,0.00,798.000000,,2013-08-13 00:45:00,
2013-08-12 18:13:00,79.0,29.0,-100.00,WSW,247,10.0,21.0,16,0.00,,,0.00,585.000000,,2013-08-13 01:13:00,
2013-08-12 18:23:00,79.0,29.0,-100.00,WSW,247,10.0,21.0,16,0.00,,,0.00,585.000000,,2013-08-13 01:23:00,
2013-08-12 18:33:00,79.0,29.0,-100.00,WSW,247,10.0,21.0,16,0.00,,,0.00,585.000000,,2013-08-13 01:33:00,
2013-08-12 18:42:00,79.0,29.0,-100.00,WSW,247,10.0,21.0,16,0.00,,,0.00,585.000000,,2013-08-13 01:42:00,
2013-08-12 19:11:00,76.0,28.0,-100.00,WSW,248,8.0,19.0,17,0.00,,,0.00,349.000000,,2013-08-13 02:11:00,
2013-08-12 19:21:00,76.0,28.0,-100.00,WSW,248,8.0,19.0,17,0.00,,,0.00,349.000000,,2013-08-13 02:21:00,
2013-08-12 19:32:00,76.0,28.0,-100.00,WSW,248,8.0,19.0,17,0.00,,,0.00,349.000000,,2013-08-13 02:32:00,
2013-08-12 19:42:00,76.0,28.0,-100.00,WSW,248,8.0,19.0,17,0.00,,,0.00,349.000000,,2013-08-13 02:42:00,
2013-08-12 20:11:00,69.0,27.0,-100.00,SSW,201,3.0,16.0,21,0.00,,,0.00,104.000000,,2013-08-13 03:11:00,
2013-08-12 20:22:00,69.0,27.0,-100.00,SSW,201,3.0,16.0,21,0.00,,,0.00,104.000000,,2013-08-13 03:22:00,
2013-08-12 20:33:00,69.0,27.0,-100.00,SSW,201,3.0,16.0,21,0.00,,,0.00,104.000000,,2013-08-13 03:33:00,
2013-08-12 20:43:00,69.0,27.0,-100.00,SSW,201,3.0,16.0,21,0.00,,,0.00,104.000000,,2013-08-13 03:43:00,
2013-08-12 21:12:00,67.0,30.0,-100.00,SSW,212,6.0,19.0,25,0.00,,,0.00,1.000000,,2013-08-13 04:12:00,
2013-08-12 21:23:00,67.0,30.0,-100.00,SSW,212,6.0,19.0,25,0.00,,,0.00,1.000000,,2013-08-13 04:23:00,
2013-08-12 21:33:00,67.0,30.0,-100.00,SSW,212,6.0,19.0,25,0.00,,,0.00,1.000000,,2013-08-13 04:33:00,
2013-08-12 21:42:00,67.0,30.0,-100.00,SSW,212,6.0,19.0,25,0.00,,,0.00,1.000000,,2013-08-13 04:42:00,
2013-08-12 22:12:00,65.0,29.0,-100.00,SW,215,5.0,18.0,26,0.00,,,0.00,0.000000,,2013-08-13 05:12:00,
2013-08-12 22:21:00,65.0,29.0,-100.00,SW,215,5.0,18.0,26,0.00,,,0.00,0.000000,,2013-08-13 05:21:00,
2013-08-12 22:31:00,65.0,29.0,-100.00,SW,215,5.0,18.0,26,0.00,,,0.00,0.000000,,2013-08-13 05:31:00,
2013-08-12 22:42:00,65.0,29.0,-100.00,SW,215,5.0,18.0,26,0.00,,,0.00,0.000000,,2013-08-13 05:42:00,
2013-08-12 23:11:00,62.0,26.0,-100.00,South,176,2.0,12.0,25,0.00,,,0.00,0.000000,,2013-08-13 06:11:00,
2013-08-12 23:21:00,62.0,26.0,-100.00,South,176,2.0,12.0,25,0.00,,,0.00,0.000000,,2013-08-13 06:21:00,
2013-08-12 23:32:00,62.0,26.0,-100.00,South,176,2.0,12.0,25,0.00,,,0.00,0.000000,,2013-08-13 06:32:00,
2013-08-12 23:42:00,62.0,26.0,-100.00,South,176,2.0,12.0,25,0.00,,,0.00,0.000000,,2013-08-13 06:42:00,